Location: Newark
(35.8833°N, 14.5000°E)
Time: 19:19:41
(UTC+00:00)

Vanguard 2 - Visible Passes

Search period start: 13 November 2019 00:00
Search period end: 23 November 2019 00:00
Orbit: 554 x 2937 km, 32.9° (Epoch: 12 November)

Date Brightness Start Highest point End Pass type
(mag) Time Alt. Az. Time Alt. Az. Time Alt. Az.
15 Nov 11.8 05:13:02 10° S 05:16:28 12° SSE 05:19:29 10° SE visible
18 Nov 11.9 03:55:14 10° S 04:00:26 13° SSE 04:04:56 10° SE visible
19 Nov 11.6 04:09:40 10° S 04:18:34 19° SSE 04:25:28 10° ESE visible
20 Nov 11.3 04:25:35 10° SSW 04:36:40 26° SSE 04:44:39 10° E visible
21 Nov 11.9 02:38:00 10° SSE 02:43:53 13° SE 02:49:07 10° ESE visible
21 Nov 10.9 04:42:11 10° SSW 04:54:45 34° SSE 05:03:17 10° E visible
22 Nov 11.6 02:51:58 10° S 03:01:57 19° SSE 03:10:07 10° ESE visible
22 Nov 10.6 04:59:17 10° SW 05:12:48 42° SSE 05:21:36 10° E visible
